sat.trackr.live / text

‹ back to catalog

STARLINK-37354

NORAD 68743 · 2026-082R

PAYLOAD ACTIVE UNKNOWN

§ Identity

Operator
Country
US
Launch date
2026-04-15
Launch site
AFWTR
Launch vehicle
Mass (kg)
RCS (m²)

Purposes: comms

External: N2YO · Heavens-Above · Gunter

§ Orbital elements

Epoch: 2026-05-25T04:00:03.998880Z

Period
92.67 min
Inclination
97.2858°
Eccentricity
0.0001784
Mean motion
15.53875819 rev/d
Perigee alt
404.2 km
Apogee alt
406.6 km
Semi-major
6,783.6 km
B*
-3.2652e-2
RAAN
8.8873°
Arg perigee
110.7763°
Mean anomaly
224.9745°
Rev number
600

§ Raw data

STARLINK-373541 68743U 26082R   26145.16671295 -.01858136  00000+0 -32652-1 0  99932 68743  97.2858   8.8873 0001784 110.7763 224.9745 15.53875819  6009

JSON: /api/v1/satellites/68743 · /tle

For live sub-satellite position, see the globe view (requires WebGL).

§ Visibility from observer

Set your observer location to see the next 7 days of passes ≥ 10°. The values pass through the URL so the page stays shareable.

No JS? Fill the form by hand. The geolocation button needs JavaScript.